Aérodrome :
LOGIN :

S'inscrire | Disclaimer

   EN    FR    IT 

 










Légende :    VFR   VFR Marginal   IFR   IFR Intensif   IFR Très Intensif
Visi : 
Plafond : 
>= 8 km
>= 3000ft
5 à 8 km
1000 à 3000 ft
1500m à 5 km
500 à 1000 ft
800 à 1500m
200 à 500 ft
< 800m
< 200 ft
Symboles :   Orages  Brouillard  Fortes neiges  Fortes précipitations  Vent > 20 kt
SIGMETs :   Divers  Orages  Givrage  Turbulence  Onde Orograph.  Cendres Volcan.







- Altitude de l'aérodrome : 751 ft
- Code IATA : ENC
- Voir les cartes d'approche


LFSN - Nancy Essey

DERNIER METAR :
  • 211300Z AUTO 25008KT 220V290 9999 BKN042 BKN050 BKN230 24/14 Q1013

METARs EXPIRÉS :
  • 211230Z AUTO 26007KT 210V320 9999 BKN037 OVC044 23/14 Q1013
  • 211200Z AUTO 24005KT 200V310 9999 FEW001 BKN038 23/14 Q1014
  • 211130Z AUTO 25008KT 220V320 9999 BKN036 23/14 Q1014
  • 211100Z AUTO 25007KT 200V300 9999 BKN032 22/14 Q1014
  • 211030Z AUTO 27007KT 240V310 9999 BKN029 22/14 Q1014

Prévision TAF périmée.
Pas de NOTAMs connus pour ce terrain.



MET'MAP, la Météo Aéronautique d'un coup d'oeil ! - Copyright ORBIFLY Décembre 2007 - Disclaimer

ORBIFLY MET'MAP TEAM :

Programmation & Développement : Alexandra Zaïnal
Conception & Développement : Baudouin d'Aumeries
Co-Programmation & Développement : Marc-Olivier Méhu
Soutien technique & logistique : Manuel Goepfert

Contact : metmap@orbifly.com




SOURCES & CREDITS :

   NOAA